Regional Weather Roundup
Issued by NWS Memphis, TN

Home | Current Version | Previous Version | Text Only | Print | Product List | Glossary On
Versions: 1 2 3 4 5 6 7 8 9 10 11 12 13 14 15 16 17 18 19 20 21 22 23 24 25 26 27 28 29 30 31 32 33 34 35 36 37 38 39 40 41 42 43 44 45 46 47 48 49 50
000
ASUS44 KMEG 091010
RWRMEG
MEMPHIS CWA HOURLY WEATHER ROUNDUP
NATIONAL WEATHER SERVICE MEMPHIS TN
400 AM CST FRI DEC 09 2016

...WEST TENNESSEE...

CITY           SKY/WX    TMP DP  RH WIND       PRES   REMARKS
MEMPHIS INTL   CLEAR     26  17  68 N8        30.62R WCI  18
NWS MEMPHIS      N/A     24 N/A N/A MISG        N/A
JACKSON        CLEAR     24  16  71 N5        30.61S WCI  18
BOLIVAR        CLEAR     23  16  74 NW5       30.59S WCI  17
LEXINGTON      CLEAR     21  12  68 N7        30.56S WCI  13
DYERSBURG      CLEAR     23  14  68 N5        30.62R WCI  17
UNION CITY     CLEAR     19  14  79 CALM      30.60S
PARIS          CLEAR     18  10  73 CALM      30.58S
HUNTINGDON     PTCLDY    23  16  74 CALM      30.59R


...EASTERN ARKANSAS...

CITY           SKY/WX    TMP DP  RH WIND       PRES   REMARKS
JONESBORO      CLEAR     24  15  68 NW3       30.65S
WEST MEMPHIS   CLEAR     26  18  71 N7        30.63S WCI  18
BATESVILLE     CLEAR     21  12  68 NW3       30.67S
NEWPORT        CLEAR     21  17  84 NW9       30.66  WCI  11
WALNUT RIDGE   CLEAR     21  12  68 NW6       30.65S WCI  14
BLYTHEVILLE    CLEAR     23  17  78 N9        30.64S WCI  13
SEARCY         CLEAR     23  16  74 N7        30.68S WCI  15
STUTTGART      CLEAR     27  14  59 N12       30.65F WCI  16
PINE BLUFF     PTCLDY    27  18  69 N10       30.66S WCI  17
MONTICELLO     CLEAR     28  16  60 NE5       30.64S WCI  23


...NORTH MISSISSIPPI...

CITY           SKY/WX    TMP DP  RH WIND       PRES   REMARKS
TUPELO         CLEAR     25  17  72 N9        30.59R WCI  15
OXFORD         CLEAR     23  16  74 N3        30.61F
BATESVILLE     CLEAR     21  19  91 CALM      30.62F
TUNICA         CLEAR     27  19  74 N8        30.64S WCI  18
CLARKSDALE     CLEAR     28  19  69 N9        30.64R WCI  20
CORINTH        CLEAR     25  16  68 NW3       30.59R
GREENWOOD      CLEAR     26  19  74 N3        30.62R
COLUMBUS       CLEAR     26  20  76 CALM      30.57R
STARKVILLE     CLEAR     27  21  80 CALM      30.59R
GOLDEN TRIANGL CLEAR     27  16  63 NW3       30.53R


...SOUTHEAST MISSOURI...

CITY           SKY/WX    TMP DP  RH WIND       PRES   REMARKS
KENNETT        CLEAR     25  16  68 N3        30.63F
WEST PLAINS    CLEAR     15  10  80 W5        30.60S WCI   8
POPLAR BLUFF   CLEAR     20  14  77 W5        30.64S WCI  13
CAPE GIRARDEAU CLEAR     21  12  68 NW7       30.62S WCI  12


...NORTHWEST ALABAMA...

CITY           SKY/WX    TMP DP  RH WIND       PRES   REMARKS
MUSCLE SHOALS  CLEAR     27  15  61 N6        30.57R WCI  20


...MIDDLE TENNESSEE...

CITY           SKY/WX    TMP DP  RH WIND       PRES   REMARKS
NASHVILLE      CLOUDY    25  15  66 NW7       30.55S WCI  17
CLARKSVILLE    CLOUDY    22  15  75 NW6       30.56F WCI  14
COLUMBIA       CLEAR     21  16  79 N3        30.53S


...WESTERN KENTUCKY...

CITY           SKY/WX    TMP DP  RH WIND       PRES   REMARKS
PADUCAH        PTCLDY    20  12  71 CALM      30.59S
FORT CAMPBELL  CLOUDY    23  15  72 NW5       30.56S WCI  17


...CENTRAL ARKANSAS...

CITY           SKY/WX    TMP DP  RH WIND       PRES   REMARKS
LITTLE ROCK    CLEAR     24  16  71 N9        30.67S WCI  14


SKY/WX REPORTED AS FAIR MEANS FEW OR NO CLOUDS BELOW
12 THOUSAND FEET.





USA.gov is the U.S. government's official web portal to all federal, state and local government web resources and services.